sat.trackr.live / text

‹ back to catalog

STARLINK-31775

NORAD 60052 · 2024-112Q

PAYLOAD ACTIVE UNKNOWN

§ Identity

Operator
Country
US
Launch date
2024-06-08
Launch site
AFWTR
Launch vehicle
Mass (kg)
RCS (m²)

Purposes: comms

External: N2YO · Heavens-Above · Gunter

§ Orbital elements

Epoch: 2026-09-21T15:51:03.830400Z

Period
93.85 min
Inclination
53.1596°
Eccentricity
0.0001636
Mean motion
15.34389203 rev/d
Perigee alt
461.6 km
Apogee alt
463.9 km
Semi-major
6,840.9 km
B*
1.3779e-5
RAAN
246.1003°
Arg perigee
86.6941°
Mean anomaly
273.4249°
Rev number
12,862

§ Raw data

STARLINK-317751 60052U 24112Q   26264.66046100  .00000089  00000+0  13779-4 0  99932 60052  53.1596 246.1003 0001636  86.6941 273.4249 15.34389203128628

JSON: /api/v1/satellites/60052 · /tle

For live sub-satellite position, see the globe view (requires WebGL).

§ Visibility from observer

Set your observer location to see the next 7 days of passes ≥ 10°. The values pass through the URL so the page stays shareable.

No JS? Fill the form by hand. The geolocation button needs JavaScript.